Station RTAT2 - 8775237 - Port Aransas, TX Image indicating link to RSS feed of recent meteorological observations for station RTAT2


Conditions at RTAT2 as of
(7:18 pm CDT on 05/19/2024)
0018 GMT on 05/20/2024:
     

Click on the graph icon in the table below to see a time series plot of the last five days of that observation.

5-day plot - Water Temperature Water Temperature (WTMP): 83.5 °F
Previous observations
TIME
(CDT)
5-day plot - Wind Direction
WDIR
 
5-day plot - Wind Speed
WSPD
kts
5-day plot - Wind Gust
GST
kts
5-day plot - Wave Height
WVHT
ft
5-day plot - Dominant Wave Period
DPD
sec
5-day plot - Average Wave Period
APD
sec
5-day plot - Mean Wave Direction
MWD
 
5-day plot - Atmospheric Pressure
PRES
in
5-day plot - Pressure Tendency
PTDY
in
5-day plot - Air Temperature
ATMP
°F
5-day plot - Water Temperature
WTMP
°F
5-day plot - Dew Point
DEWP
°F
5-day plot - Salinity
SAL
psu
5-day plot - Visibility
VIS
nmi
5-day plot - Tide (above MLLW)
TIDE
ft
2024-05-19 07:12 pm---------- 83.5----
2024-05-19 07:06 pm---------- 83.5----
2024-05-19 07:00 pmENE 9.9 13.0----29.83-0.03- 83.5----
2024-05-19 06:54 pmENE 9.9 14.0----29.83-- 83.5----
2024-05-19 06:48 pm NE 12.0 14.0------------
2024-05-19 06:42 pm NE 12.0 14.0------------
2024-05-19 06:36 pmENE 11.1 14.0------------
2024-05-19 06:30 pmENE 12.0 15.9----29.83- 81.3 83.3----
2024-05-19 06:24 pmENE 11.1 15.0----29.83- 81.3 83.3----
2024-05-19 06:18 pmENE 12.0 15.9----29.83- 81.5 83.3----
2024-05-19 06:12 pmENE 11.1 14.0----29.83- 81.3 83.1----
2024-05-19 06:06 pmENE 12.0 15.9----29.83- 81.3 83.1----
2024-05-19 06:00 pmENE 13.0 15.9------- 83.1----
2024-05-19 05:54 pmENE 12.0 15.0------- 83.1----
2024-05-19 05:48 pmENE 13.0 15.9----29.84-- 83.1----
2024-05-19 05:42 pmENE 13.0 15.0----29.84-- 83.1----
2024-05-19 05:36 pmENE 12.0 15.0----29.84-- 83.1----
2024-05-19 05:30 pmENE 13.0 15.9----29.84-- 82.9----
2024-05-19 05:24 pmENE 12.0 17.1----29.83-- 82.9----
2024-05-19 05:18 pm-------29.83- 81.1 82.9----
2024-05-19 05:12 pm-------29.83- 81.5 82.9----
2024-05-19 05:06 pm-------29.83- 81.3 82.9----
2024-05-19 05:00 pmENE 14.0 18.1----29.83-0.07 81.1 82.9----
2024-05-19 04:54 pmENE 12.0 15.9----29.83- 81.3 82.9----
2024-05-19 04:48 pmENE 14.0 15.9----29.83- 81.1 82.9----
2024-05-19 04:42 pmENE 12.0 17.1----29.83- 81.7 82.9----
2024-05-19 04:36 pmENE 14.0 17.1----29.83- 81.1 82.9----
2024-05-19 04:30 pmENE 15.0 18.1----29.84- 80.8 82.9----
2024-05-19 04:24 pmENE 11.1 17.1----29.84- 81.7 82.9----
2024-05-19 04:18 pmENE 14.0 15.9----29.85- 81.3 82.9----
2024-05-19 04:12 pmENE 13.0 15.9----29.85- 81.3 82.8----
2024-05-19 04:06 pm NE 13.0 15.0----29.85- 81.5 82.8----
2024-05-19 04:00 pm NE 12.0 14.0----29.86-0.05 81.5 82.8----
2024-05-19 03:54 pm NE 13.0 15.0----29.86- 81.3 82.8----
2024-05-19 03:48 pmENE 12.0 15.9----29.86- 81.5 82.8----
2024-05-19 03:42 pmENE 13.0 15.0----29.86- 81.5 82.8----
2024-05-19 03:36 pmENE 12.0 17.1----29.86- 81.3 82.6----
2024-05-19 03:30 pm NE 12.0 15.9----29.87- 81.5 82.6----
2024-05-19 03:24 pm NE 11.1 14.0----29.87- 81.7 82.6----
2024-05-19 03:18 pmENE 11.1 15.0----29.87- 81.5 82.6----
2024-05-19 03:12 pmENE 11.1 14.0----29.88- 81.3 82.6----
2024-05-19 03:06 pmENE 12.0 14.0----29.88- 81.0 82.6----
2024-05-19 03:00 pm NE 12.0 14.0----29.88-0.05- 82.4----
2024-05-19 02:54 pm NE 12.0 15.0----29.88-- 82.4----
2024-05-19 02:48 pm NE 11.1 14.0----29.88-- 82.4----
2024-05-19 02:42 pm NE 13.0 15.9----29.89-- 82.4----
2024-05-19 02:36 pm NE 12.0 15.0----29.89-- 82.4----
2024-05-19 02:30 pm NE 11.1 13.0----29.89- 81.3 82.4----
2024-05-19 02:24 pm NE 11.1 13.0----29.89- 81.1 82.4----
2024-05-19 02:18 pm NE 9.9 13.0----29.90- 81.1 82.4----
2024-05-19 02:12 pm NE 8.9 13.0----29.90- 81.1 82.4----
2024-05-19 02:06 pm NE 11.1 12.0----29.90- 81.1 82.6----
2024-05-19 02:00 pm NE 11.1 13.0----29.90-0.03- 82.6----
2024-05-19 01:54 pm NE 8.9 12.0----29.90-- 82.6----
2024-05-19 01:48 pmENE 8.9 12.0----29.90- 81.5 82.6----
2024-05-19 01:42 pm NE 9.9 12.0----29.90- 81.5 82.6----
2024-05-19 01:36 pm NE 11.1 12.0----29.90- 81.3 82.6----
2024-05-19 01:30 pm NE 9.9 12.0----29.90- 81.5 82.4----
2024-05-19 01:24 pm NE 11.1 13.0----29.90- 81.3 82.2----
2024-05-19 01:18 pm NE 9.9 12.0----29.90- 81.5 82.2----
2024-05-19 01:12 pm NE 8.9 12.0----29.91- 81.7 82.4----
2024-05-19 01:06 pmENE 8.0 12.0----29.91- 82.0 82.4----
2024-05-19 01:00 pm NE 8.9 11.1----29.91-0.02 81.9 82.4----
2024-05-19 12:54 pmENE 9.9 12.0----29.91- 81.9 82.4----
2024-05-19 12:48 pmENE 7.0 11.1----29.91- 82.6 82.4----
2024-05-19 12:42 pmENE 8.0 9.9----29.91- 82.0 82.4----
2024-05-19 12:36 pmENE 8.9 11.1----29.92- 81.7 82.4----
2024-05-19 12:30 pmENE 7.0 11.1----29.92- 81.9 82.4----
2024-05-19 12:24 pm NE 8.9 11.1----29.92- 81.5 82.4----
2024-05-19 12:18 pm NE 8.9 9.9----29.93-- 82.2----
2024-05-19 12:12 pm NE 8.9 11.1----29.93-- 82.0----
2024-05-19 12:06 pm NE 8.0 9.9----29.93-- 82.0----
2024-05-19 12:00 pm NE 8.0 9.9----29.93+0.00- 82.2----
2024-05-19 11:54 am NE 8.0 9.9----29.93-- 82.2----
2024-05-19 11:48 am NE 6.0 9.9----29.93- 81.3 82.0----
2024-05-19 11:42 am NE 8.0 8.9----29.93- 81.3 82.0----
2024-05-19 11:36 am NE 8.0 11.1----29.93- 81.3 82.0----
2024-05-19 11:30 am NE 7.0 8.9----29.93- 82.0 81.7----
2024-05-19 11:24 am NE 7.0 8.9----29.93- 81.9 81.7----
2024-05-19 11:18 am NE 8.0 9.9----29.93- 81.9 81.7----
2024-05-19 11:12 am NE 8.0 9.9----29.93- 81.9 81.7----
2024-05-19 11:06 am NE 5.1 8.0----29.93- 81.9 81.5----
2024-05-19 11:00 am NE 7.0 9.9----29.93+0.02 82.0 81.5----
2024-05-19 10:54 am NE 7.0 8.9----29.93- 82.0 81.5----
2024-05-19 10:48 amENE 7.0 8.9----29.93- 82.2 81.5----
2024-05-19 10:42 am E 4.1 8.0----29.93- 82.4 81.5----
2024-05-19 10:36 amENE 5.1 8.0----29.93- 81.9 81.5----
2024-05-19 10:30 am NE 5.1 11.1----29.93- 81.7 81.5----
2024-05-19 10:24 am NE 7.0 9.9----29.93- 81.7 81.5----
2024-05-19 10:18 am-------29.93- 81.5 81.5----
2024-05-19 10:12 am-------29.93- 81.3 81.5----
2024-05-19 10:06 am-------29.93- 81.3 81.5----
2024-05-19 10:00 am-------29.93+0.04 81.3 81.5----
2024-05-19 09:54 am-------29.93- 81.1 81.5----
2024-05-19 09:48 am-------29.93- 81.1 81.5----
2024-05-19 09:42 am-------29.93- 81.1 81.5----
2024-05-19 09:36 am-------29.93- 81.3 81.5----
2024-05-19 09:30 am NE 7.0 8.0----29.93- 81.1 81.5----
2024-05-19 09:24 am NE 6.0 8.0----29.93- 81.1 81.5----
2024-05-19 09:18 am NE 7.0 8.0----29.93- 80.6 81.5----
2024-05-19 09:12 amENE 5.1 6.0----29.93- 80.8 81.5----
2024-05-19 09:06 am NE 5.1 6.0----29.93- 80.6 81.5----
2024-05-19 09:00 am NE 5.1 8.0----29.93+0.06- 81.5----
2024-05-19 08:54 am NE 6.0 7.0----29.93-- 81.5----
2024-05-19 08:48 am-------29.92- 80.6 81.5----
2024-05-19 08:42 am-------29.92- 80.2 81.5----
2024-05-19 08:36 am-------29.92- 80.6 81.5----
2024-05-19 08:30 am NE 6.0 7.0----29.92-- 81.5----
2024-05-19 08:24 am NE 6.0 7.0----29.91-- 81.5----
2024-05-19 08:18 amENE 5.1 7.0----29.91-- 81.5----
2024-05-19 08:12 amENE 5.1 6.0----29.91-- 81.5----
2024-05-19 08:06 am E 5.1 7.0----29.91-- 81.5----
2024-05-19 08:00 amENE 5.1 6.0----29.91+0.05- 81.7----
2024-05-19 07:54 am E 4.1 6.0----29.91-- 81.7----
2024-05-19 07:48 am E 4.1 6.0----29.90- 80.1 81.7----
2024-05-19 07:42 am E 4.1 6.0----29.90- 80.1 81.7----
2024-05-19 07:36 am E 4.1 5.1----29.90- 79.9 81.7----
2024-05-19 07:30 am-------29.90- 79.9-----
2024-05-19 07:24 am-------29.89- 79.7-----
2024-05-19 07:18 am E 5.1 6.0----29.89-- 81.7----
2024-05-19 07:12 am E 2.9 6.0----29.89-- 81.7----
2024-05-19 07:06 am E 5.1 6.0----29.89-- 81.7----
2024-05-19 07:00 am E 5.1 7.0----29.89+0.03 79.5 81.7----
2024-05-19 06:54 am E 6.0 8.0----29.89- 79.7 81.7----
2024-05-19 06:48 am E 6.0 7.0----29.89- 79.5 81.7----
2024-05-19 06:42 am E 4.1 5.1----29.88- 79.5 81.7----
2024-05-19 06:36 am E 5.1 7.0----29.88- 79.5 81.7----
2024-05-19 06:30 am E 4.1 6.0----29.88- 79.5 81.7----
2024-05-19 06:24 am E 4.1 6.0----29.88- 79.5 81.9----
2024-05-19 06:18 amENE 5.1 8.0----29.88- 79.7 81.9----
2024-05-19 06:12 am E 6.0 7.0----29.87- 79.5 81.9----
2024-05-19 06:06 am E 6.0 7.0----29.87- 79.7 81.9----
2024-05-19 06:00 amENE 7.0 8.9----29.87+0.01------
2024-05-19 05:54 am E 6.0 8.0----29.87-------
2024-05-19 05:48 am E 5.1 8.0----29.87-- 81.9----
2024-05-19 05:42 am E 6.0 8.0----29.87-- 81.9----
2024-05-19 05:36 am E 5.1 8.9----29.87-- 81.9----
2024-05-19 05:30 am E 5.1 8.0----29.87- 79.5 81.9----
2024-05-19 05:24 am E 6.0 8.0----29.87- 79.5 81.9----
2024-05-19 05:18 am E 5.1 7.0----29.86-- 81.9----
2024-05-19 05:12 am E 6.0 8.0----29.86-- 81.9----
2024-05-19 05:06 am E 6.0 8.0----29.86-- 81.9----
2024-05-19 05:00 am-------29.86+0.00------
2024-05-19 04:54 am-------29.86-------
2024-05-19 04:48 am E 5.1 7.0----29.86- 79.3 81.9----
2024-05-19 04:42 am E 6.0 8.0----29.85- 79.3 81.9----
2024-05-19 04:36 am E 7.0 8.9----29.85- 79.3 81.9----
2024-05-19 04:30 am E 5.1 8.0----29.85- 79.3 81.9----
2024-05-19 04:24 am E 5.1 7.0----29.85- 79.3 81.9----
2024-05-19 04:18 am E 5.1 8.9----29.85- 79.5 81.9----
2024-05-19 04:12 am E 6.0 8.0----29.85- 79.5 81.9----
2024-05-19 04:06 am E 7.0 11.1----29.85- 79.5 81.9----
2024-05-19 04:00 am E 8.0 11.1----29.85-0.02 79.3 81.9----
2024-05-19 03:54 am E 7.0 8.9----29.85- 79.2 81.9----
2024-05-19 03:48 am E 8.0 11.1----29.85- 79.0 81.9----
2024-05-19 03:42 am E 6.0 8.9----29.85- 79.2 81.9----
2024-05-19 03:36 am E 7.0 9.9----29.85- 79.3 81.9----
2024-05-19 03:30 am E 7.0 8.0----29.85- 79.3 81.9----
2024-05-19 03:24 am E 6.0 8.0----29.85- 79.3 81.9----
2024-05-19 03:18 am E 6.0 8.0----29.85- 79.3 81.9----
2024-05-19 03:12 am E 6.0 8.0----29.86- 79.2 81.9----
2024-05-19 03:06 am E 4.1 7.0----29.85- 79.2 81.9----
2024-05-19 03:00 am E 5.1 7.0----29.85-0.03 79.2 81.9----
2024-05-19 02:54 am E 5.1 7.0----29.86- 79.3 81.9----
2024-05-19 02:48 am E 5.1 8.0----29.86- 79.3 81.9----
2024-05-19 02:42 am E 5.1 7.0----29.86- 79.3 81.9----
2024-05-19 02:36 am E 5.1 8.0----29.86- 79.2 82.0----
2024-05-19 02:30 am E 5.1 6.0----29.86- 79.2 82.0----
2024-05-19 02:24 am E 5.1 7.0----29.86- 79.3 82.0----
2024-05-19 02:18 am E 5.1 6.0----29.86- 79.3 82.0----
2024-05-19 02:12 am E 5.1 6.0----29.86- 79.3 82.0----
2024-05-19 02:06 am E 4.1 5.1----29.86- 79.3 82.0----
2024-05-19 02:00 am E 4.1 6.0----29.86-0.01 79.3 82.0----
2024-05-19 01:54 am E 5.1 6.0----29.87- 79.5 82.0----
2024-05-19 01:48 am E 4.1 5.1----29.87- 79.5 82.0----
2024-05-19 01:42 amENE 4.1 5.1----29.87- 79.5 82.0----
2024-05-19 01:36 am E 5.1 5.1----29.87- 79.5 82.0----
2024-05-19 01:30 am E 4.1 6.0----29.87- 79.5 82.0----
2024-05-19 01:24 am E 2.9 6.0----29.87- 79.7 82.0----
2024-05-19 01:18 am E 5.1 6.0----29.87- 79.7 82.0----
2024-05-19 01:12 am E 4.1 6.0----29.88- 79.7 82.0----
2024-05-19 01:06 am E 4.1 5.1----29.88- 79.9 82.0----
2024-05-19 01:00 amENE 4.1 5.1----29.88+0.02 79.9 82.0----
2024-05-19 12:54 amENE 4.1 5.1----29.88- 80.1 82.0----
2024-05-19 12:48 amENE 4.1 5.1----29.88- 80.1 82.0----
2024-05-19 12:42 amENE 4.1 5.1----29.88- 80.2 82.0----
2024-05-19 12:36 amENE 5.1 7.0----29.88- 80.1 82.0----
2024-05-19 12:30 amENE 5.1 7.0----29.88- 80.2 82.0----
2024-05-19 12:24 amENE 5.1 6.0----29.88- 80.2 82.0----
2024-05-19 12:18 amENE 5.1 7.0----29.88- 80.4 82.0----
2024-05-19 12:12 amENE 5.1 7.0----29.88- 80.2 82.0----
2024-05-19 12:06 amENE 5.1 7.0----29.88- 80.4 82.0----
2024-05-19 12:00 amENE 5.1 7.0----29.88+0.05 80.4 82.0----
2024-05-18 11:54 pmENE 5.1 7.0----29.88- 80.6 82.0----
2024-05-18 11:48 pmENE 5.1 6.0----29.88- 80.6 82.0----
2024-05-18 11:42 pm E 5.1 8.0----29.88- 80.6 82.0----
2024-05-18 11:36 pmENE 6.0 8.0----29.88- 80.8 82.0----
2024-05-18 11:30 pmENE 7.0 8.9----29.88- 80.8 82.0----
2024-05-18 11:24 pmENE 7.0 8.9----29.88- 81.0 82.0----
2024-05-18 11:18 pmENE 8.0 9.9----29.88- 81.0 82.0----
2024-05-18 11:12 pmENE 8.0 11.1----29.88- 81.0 82.0----
2024-05-18 11:06 pmENE 7.0 8.9----29.88- 80.4 82.0----
2024-05-18 11:00 pmENE 7.0 8.9----29.88+0.06 80.4 82.0----
2024-05-18 10:54 pmENE 7.0 9.9----29.88- 80.6 82.0----
2024-05-18 10:48 pmENE 7.0 8.9----29.87- 80.6 82.2----
2024-05-18 10:42 pmENE 7.0 8.9----29.87- 80.6 82.2----
2024-05-18 10:36 pmENE 8.0 9.9----29.87- 80.6 82.2----
2024-05-18 10:30 pmENE 6.0 8.9----29.87- 81.0 82.2----
2024-05-18 10:24 pmENE 8.0 9.9----29.86- 80.6 82.2----
2024-05-18 10:18 pmENE 7.0 8.9----29.86- 80.6 82.2----
2024-05-18 10:12 pmENE 7.0 11.1----29.86- 80.8 82.2----
2024-05-18 10:06 pmENE 7.0 9.9----29.86- 80.8 82.2----
2024-05-18 10:00 pmENE 7.0 8.9----29.85+0.05 80.8 82.2----
2024-05-18 09:54 pmENE 7.0 9.9----29.85- 81.0 82.2----
2024-05-18 09:48 pmENE 8.0 12.0----29.85- 81.0 82.0----
2024-05-18 09:42 pmENE 8.9 12.0----29.85- 81.0 82.0----
2024-05-18 09:36 pmENE 7.0 12.0----29.85- 80.8 82.2----
2024-05-18 09:30 pmENE 9.9 12.0----29.84- 80.6 82.2----
2024-05-18 09:24 pmENE 9.9 13.0----29.84- 80.2 82.2----
2024-05-18 09:18 pmENE 11.1 14.0----29.84- 80.4 82.2----
2024-05-18 09:12 pmENE 8.9 11.1----29.84- 80.6 82.2----
2024-05-18 09:06 pmENE 8.9 11.1----29.83- 80.6 82.2----
2024-05-18 09:00 pmENE 8.9 13.0----29.83+0.03 80.4 82.2----
2024-05-18 08:54 pmENE 8.9 12.0----29.83- 80.4 82.2----
2024-05-18 08:48 pmENE 8.0 12.0----29.83- 80.6 82.2----
2024-05-18 08:42 pmENE 11.1 13.0----29.83- 80.4 82.2----
2024-05-18 08:36 pmENE 8.9 12.0----29.83- 80.4 82.2----
2024-05-18 08:30 pmENE 8.0 11.1----29.83- 80.4 82.2----
2024-05-18 08:24 pmENE 8.0 13.0----29.83- 80.2 82.2----
2024-05-18 08:18 pmENE 11.1 13.0----29.83- 80.1 82.2----
2024-05-18 08:12 pmENE 9.9 12.0----29.82- 80.2 82.2----
2024-05-18 08:06 pmENE 8.9 11.1----29.82- 80.4 82.2----
2024-05-18 08:00 pmENE 8.9 11.1----29.82+0.01 80.4 82.2----
2024-05-18 07:54 pmENE 8.9 11.1----29.82- 80.4 82.2----
2024-05-18 07:48 pm NE 8.9 11.1----29.82- 80.4 82.2----
2024-05-18 07:42 pmENE 8.0 12.0----29.81- 80.6 82.2----
2024-05-18 07:36 pmENE 8.9 12.0----29.81- 80.4 82.0----
2024-05-18 07:30 pmENE 9.9 12.0----29.81- 80.4 82.0----
2024-05-18 07:24 pmENE 11.1 12.0----29.81- 80.8 82.0----
2024-05-18 07:18 pmENE 9.9 12.0----29.81- 80.8 82.0----
2024-05-18 07:12 pmENE 9.9 12.0----29.81- 80.8 82.0----
2024-05-18 07:06 pmENE 8.0 11.1----29.81- 81.0 82.0----
2024-05-18 07:00 pmENE 8.9 12.0----29.81-0.01 80.8 82.0----
2024-05-18 06:54 pmENE 9.9 11.1----29.80- 80.8 82.0----